ニート彗星

291P/NEAT (2004)

English version
Home page
Updated on October 17, 2015

---------------------------------------------------------------------

・ プロフィール

符号 291P/2003 S1
発見日 2003年9月23日
発見光度 18.8等
発見者 Near-Earth-Asteroid Tracking Team (Jet Propulsion Laboratory)

・ 軌道要素

Epoch 2004 Mar. 16.0 TT = JDT 2453080.5
T 2004 Mar. 27.62879 TT                                 MPC
q   2.5956093            (2000.0)            P               Q
n   0.10132910     Peri.  175.81978     +0.54595512     -0.83289610
a   4.5566595      Node   241.06680     +0.76564525     +0.53992845
e   0.4303701      Incl.    5.94513     +0.34017696     +0.12149630
P   9.73
From 308 observations 2003 July 29-2013 July 12, mean residual 0".6.

・ 星図

・ 光度変化

        m1 = 7.7 + 5 logΔ + 20.0 log r(t + 55)

---------------------------------------------------------------------

軌道要素はM.P.E.C. 2013-N48に掲載されたものです。
星図は StellaNavigator Ver.2.0 for Windows (アストロアーツ 編著 / アスキー出版局刊) で作成したものです。
光度グラフはComet for Windowsで作成したものです。

---------------------------------------------------------------------

Copyright(C) Seiichi Yoshida (comet@aerith.net). All rights reserved.